Location: Newark
(35.0033°N, 81.0878°W)
Time: 08:52:35
(UTC+00:00)

Hubble Space Telescope - Visible Passes

Search period start: 10 August 2020 00:00
Search period end: 20 August 2020 00:00
Orbit: 536 x 540 km, 28.5° (Epoch: 09 August)

Date Brightness Start Highest point End Pass type
(mag) Time Alt. Az. Time Alt. Az. Time Alt. Az.
10 Aug 2.8 08:59:20 16° SSE 08:59:27 16° SSE 09:01:58 10° ESE visible
11 Aug 2.7 08:49:11 18° SSE 08:49:11 18° SSE 08:51:32 10° ESE visible
12 Aug 2.7 08:39:02 19° SE 08:39:02 19° SE 08:41:01 10° ESE visible
12 Aug 1.8 10:14:52 10° WSW 10:18:35 32° S 10:22:19 10° ESE visible
13 Aug 2.9 08:28:55 18° SE 08:28:55 18° SE 08:30:25 10° ESE visible
13 Aug 1.7 10:04:14 11° WSW 10:07:50 33° S 10:11:33 10° ESE visible
14 Aug 3.1 08:18:49 15° ESE 08:18:49 15° ESE 08:19:47 10° ESE visible
14 Aug 1.7 09:54:08 14° WSW 09:57:04 32° S 10:00:47 10° ESE visible
15 Aug 3.5 08:08:46 12° ESE 08:08:46 12° ESE 08:09:06 10° ESE visible
15 Aug 1.7 09:44:06 19° SW 09:46:18 31° S 09:49:58 10° ESE visible
16 Aug 1.8 09:34:07 23° SW 09:35:32 29° S 09:39:09 10° SE visible
17 Aug 1.8 09:24:14 26° SSW 09:24:46 27° S 09:28:17 10° SE visible
18 Aug 2.1 09:14:27 24° S 09:14:27 24° S 09:17:22 10° SE visible
19 Aug 2.7 09:04:48 17° SSE 09:04:48 17° SSE 09:06:24 10° SE visible
